TimeMST,TemperatureF,Dew PointF,Humidity,Sea Level PressureIn,VisibilityMPH,Wind Direction,Wind SpeedMPH,Gust SpeedMPH,PrecipitationIn,Events,Conditions,WindDirDegrees,DateUTC
12:15 AM,30.2,28.4,93,29.79,1.2,East,8.1,-,N/A,,Overcast,90,2013-02-20 07:15:00
12:35 AM,30.2,26.6,86,29.79,2.0,South,8.1,-,N/A,,Overcast,180,2013-02-20 07:35:00
12:55 AM,30.2,28.4,93,29.77,3.0,ESE,8.1,-,N/A,,Overcast,110,2013-02-20 07:55:00
1:15 AM,30.2,28.4,93,29.76,0.8,East,10.4,-,N/A,,Overcast,100,2013-02-20 08:15:00
1:35 AM,30.2,28.4,93,29.75,1.0,ESE,6.9,-,N/A,,Overcast,120,2013-02-20 08:35:00
1:55 AM,30.2,28.4,93,29.76,1.0,Calm,Calm,-,N/A,,Overcast,0,2013-02-20 08:55:00
2:15 AM,30.2,28.4,93,29.76,0.8,South,3.5,-,N/A,,Overcast,170,2013-02-20 09:15:00
2:35 AM,32.0,30.2,93,29.75,1.8,South,8.1,-,N/A,,Overcast,180,2013-02-20 09:35:00
2:55 AM,32.0,28.4,87,29.74,4.0,South,5.8,-,N/A,,Mostly Cloudy,190,2013-02-20 09:55:00
3:15 AM,30.2,28.4,93,29.75,1.0,Calm,Calm,-,N/A,,Overcast,0,2013-02-20 10:15:00
3:35 AM,30.2,28.4,93,29.74,1.0,East,3.5,-,N/A,,Overcast,90,2013-02-20 10:35:00
3:55 AM,30.2,28.4,93,29.73,0.8,ENE,8.1,-,0.01,,Overcast,70,2013-02-20 10:55:00
4:15 AM,30.2,28.4,93,29.73,1.5,ESE,6.9,-,0.02,,Overcast,120,2013-02-20 11:15:00
4:35 AM,30.2,28.4,93,29.73,0.8,East,3.5,-,0.04,,Overcast,100,2013-02-20 11:35:00
4:55 AM,30.2,28.4,93,29.73,1.2,SE,6.9,-,0.05,,Overcast,130,2013-02-20 11:55:00
5:15 AM,30.2,28.4,93,29.71,10.0,East,10.4,-,0.04,,Overcast,90,2013-02-20 12:15:00
5:55 AM,30.2,28.4,93,29.70,3.0,East,13.8,-,0.08,,Overcast,90,2013-02-20 12:55:00
6:15 AM,28.4,26.6,93,29.69,10.0,ESE,10.4,-,0.01,,Overcast,110,2013-02-20 13:15:00
6:35 AM,30.2,26.6,86,29.69,10.0,ESE,8.1,-,0.02,,Mostly Cloudy,120,2013-02-20 13:35:00
6:55 AM,32.0,26.6,80,29.69,10.0,Calm,Calm,-,0.03,,Mostly Cloudy,0,2013-02-20 13:55:00
7:15 AM,32.0,24.8,75,29.68,10.0,ENE,3.5,-,0.01,,Mostly Cloudy,60,2013-02-20 14:15:00
7:35 AM,32.0,26.6,80,29.69,10.0,NW,3.5,-,0.01,,Mostly Cloudy,320,2013-02-20 14:35:00
8:15 AM,33.8,30.2,87,29.68,10.0,North,4.6,-,0.01,,Scattered Clouds,350,2013-02-20 15:15:00
8:35 AM,33.8,30.2,87,29.68,10.0,North,6.9,-,0.02,,Overcast,360,2013-02-20 15:35:00
8:55 AM,35.6,30.2,81,29.66,10.0,NNW,4.6,-,0.03,,Mostly Cloudy,330,2013-02-20 15:55:00
9:15 AM,33.8,30.2,87,29.67,10.0,Calm,Calm,-,0.01,,Mostly Cloudy,0,2013-02-20 16:15:00
9:35 AM,35.6,30.2,81,29.65,10.0,North,3.5,-,0.01,,Overcast,10,2013-02-20 16:35:00
9:55 AM,37.4,30.2,75,29.64,10.0,Calm,Calm,-,0.02,,Overcast,0,2013-02-20 16:55:00
10:15 AM,37.4,30.2,75,29.64,10.0,ENE,3.5,-,N/A,,Overcast,70,2013-02-20 17:15:00
10:35 AM,37.4,30.2,75,29.62,10.0,East,3.5,-,N/A,,Overcast,90,2013-02-20 17:35:00
10:55 AM,39.2,28.4,65,29.61,10.0,Calm,Calm,-,N/A,,Mostly Cloudy,0,2013-02-20 17:55:00
11:15 AM,37.4,24.8,60,29.60,10.0,SE,3.5,-,N/A,,Mostly Cloudy,140,2013-02-20 18:15:00
11:35 AM,39.2,26.6,61,29.59,6.0,Calm,Calm,-,N/A,,Mostly Cloudy,0,2013-02-20 18:35:00
11:55 AM,37.4,24.8,60,29.58,10.0,WSW,11.5,-,N/A,,Mostly Cloudy,250,2013-02-20 18:55:00
12:15 PM,35.6,26.6,70,29.57,2.0,South,8.1,21.9,N/A,,Overcast,180,2013-02-20 19:15:00
12:35 PM,37.4,26.6,65,29.56,9.0,WSW,9.2,-,N/A,,Unknown,250,2013-02-20 19:35:00
12:55 PM,33.8,24.8,70,29.55,10.0,WSW,13.8,26.5,N/A,,Overcast,240,2013-02-20 19:55:00
1:15 PM,35.6,28.4,75,29.53,10.0,WSW,13.8,-,N/A,,Overcast,240,2013-02-20 20:15:00
1:35 PM,35.6,24.8,65,29.53,10.0,South,9.2,-,N/A,,Mostly Cloudy,190,2013-02-20 20:35:00
1:55 PM,35.6,26.6,70,29.53,9.0,ESE,3.5,-,N/A,,Overcast,120,2013-02-20 20:55:00
2:15 PM,37.4,21.2,52,29.52,10.0,SW,23.0,26.5,N/A,,Overcast,230,2013-02-20 21:15:00
2:35 PM,37.4,21.2,52,29.52,10.0,SW,28.8,35.7,N/A,,Overcast,230,2013-02-20 21:35:00
2:55 PM,33.8,24.8,70,29.56,8.0,West,12.7,-,N/A,,Mostly Cloudy,280,2013-02-20 21:55:00
3:15 PM,30.2,26.6,86,29.55,3.0,Calm,Calm,-,N/A,,Mostly Cloudy,0,2013-02-20 22:15:00
3:35 PM,33.8,26.6,75,29.55,9.0,ENE,3.5,-,N/A,,Overcast,70,2013-02-20 22:35:00
3:55 PM,33.8,21.2,60,29.56,10.0,West,20.7,25.3,N/A,,Overcast,260,2013-02-20 22:55:00
4:15 PM,28.4,24.8,86,29.57,1.2,NW,18.4,21.9,N/A,,Overcast,310,2013-02-20 23:15:00
4:35 PM,30.2,24.8,80,29.57,10.0,WNW,16.1,-,N/A,,Mostly Cloudy,300,2013-02-20 23:35:00
4:55 PM,28.4,23.0,80,29.60,10.0,West,11.5,-,N/A,,Overcast,270,2013-02-20 23:55:00
5:15 PM,28.4,24.8,86,29.60,1.0,West,8.1,-,N/A,,Overcast,280,2013-02-21 00:15:00
5:35 PM,28.4,23.0,80,29.59,8.0,East,4.6,-,N/A,,Mostly Cloudy,80,2013-02-21 00:35:00
5:55 PM,26.6,21.2,80,29.59,10.0,ESE,9.2,-,N/A,,Mostly Cloudy,120,2013-02-21 00:55:00
6:15 PM,24.8,21.2,86,29.60,10.0,SE,9.2,-,N/A,,Clear,140,2013-02-21 01:15:00
6:35 PM,24.8,21.2,86,29.61,10.0,SE,6.9,-,N/A,,Clear,130,2013-02-21 01:35:00
6:55 PM,23.0,19.4,86,29.61,10.0,SE,8.1,-,N/A,,Partly Cloudy,130,2013-02-21 01:55:00
7:15 PM,21.2,17.6,86,29.61,10.0,ESE,8.1,-,N/A,,Clear,110,2013-02-21 02:15:00
7:35 PM,19.4,15.8,86,29.61,10.0,East,9.2,-,N/A,,Partly Cloudy,100,2013-02-21 02:35:00
7:55 PM,23.0,17.6,80,29.61,10.0,ESE,10.4,-,N/A,,Scattered Clouds,120,2013-02-21 02:55:00
8:15 PM,21.2,17.6,86,29.61,10.0,SE,8.1,-,N/A,,Mostly Cloudy,130,2013-02-21 03:15:00
8:35 PM,19.4,15.8,86,29.62,10.0,ESE,5.8,-,N/A,,Partly Cloudy,120,2013-02-21 03:35:00
8:55 PM,17.6,12.2,79,29.62,10.0,SE,6.9,-,N/A,,Partly Cloudy,130,2013-02-21 03:55:00
9:35 PM,19.4,14.0,80,29.63,10.0,East,6.9,-,N/A,,Scattered Clouds,90,2013-02-21 04:35:00
9:55 PM,17.6,12.2,79,29.62,10.0,East,6.9,-,N/A,,Partly Cloudy,100,2013-02-21 04:55:00
10:15 PM,17.6,12.2,79,29.62,10.0,ENE,3.5,-,N/A,,Clear,70,2013-02-21 05:15:00
10:35 PM,15.8,12.2,86,29.61,10.0,NNW,5.8,-,N/A,,Scattered Clouds,340,2013-02-21 05:35:00
10:55 PM,17.6,14.0,86,29.60,10.0,NNW,4.6,-,N/A,,Partly Cloudy,330,2013-02-21 05:55:00
11:15 PM,19.4,15.8,86,29.59,10.0,Calm,Calm,-,N/A,,Mostly Cloudy,0,2013-02-21 06:15:00
11:35 PM,19.4,15.8,86,29.58,10.0,Calm,Calm,-,N/A,,Partly Cloudy,0,2013-02-21 06:35:00
11:55 PM,17.6,8.6,68,29.57,10.0,NNE,5.8,-,N/A,,Clear,20,2013-02-21 06:55:00